Time,TemperatureF,DewpointF,PressureIn,WindDirection,WindDirectionDegrees,WindSpeedMPH,WindSpeedGustMPH,Humidity,HourlyPrecipIn,Conditions,Clouds,dailyrainin,SoftwareType,DateUTC
2013-06-09 00:42:00,66.0,-99.9,-100.00,North,-999,-999.0,-999.0,-999,-99.99,,,0.00,,2013-06-09 07:42:00,
2013-06-09 00:53:00,66.0,-99.9,-100.00,North,-999,-999.0,-999.0,-999,-99.99,,,0.00,,2013-06-09 07:53:00,
2013-06-09 01:42:00,67.0,-99.9,-100.00,North,-999,-999.0,-999.0,-999,-99.99,,,0.00,,2013-06-09 08:42:00,
2013-06-09 02:12:00,66.0,-99.9,-100.00,North,-999,-999.0,-999.0,-999,-99.99,,,0.00,,2013-06-09 09:12:00,
2013-06-09 02:22:00,66.0,-99.9,-100.00,North,-999,-999.0,-999.0,-999,-99.99,,,0.00,,2013-06-09 09:22:00,
2013-06-09 02:33:00,65.0,-99.9,-100.00,North,-999,-999.0,-999.0,-999,-99.99,,,0.00,,2013-06-09 09:33:00,
2013-06-09 02:43:00,63.0,-99.9,-100.00,North,-999,-999.0,-999.0,-999,-99.99,,,-99.99,,2013-06-09 09:43:00,
2013-06-09 02:53:00,63.0,-99.9,-100.00,North,-999,-999.0,-999.0,-999,-99.99,,,-99.99,,2013-06-09 09:53:00,
2013-06-09 03:03:00,64.0,-99.9,-100.00,North,-999,-999.0,-999.0,-999,-99.99,,,0.00,,2013-06-09 10:03:00,
2013-06-09 03:43:00,65.0,-99.9,-100.00,North,-999,-999.0,-999.0,-999,-99.99,,,0.00,,2013-06-09 10:43:00,
2013-06-09 03:52:00,64.0,-99.9,-100.00,North,-999,-999.0,-999.0,-999,-99.99,,,-99.99,,2013-06-09 10:52:00,
2013-06-09 04:02:00,64.0,-99.9,-100.00,North,-999,-999.0,-999.0,-999,-99.99,,,-99.99,,2013-06-09 11:02:00,
2013-06-09 04:32:00,64.0,-99.9,-100.00,North,-999,-999.0,-999.0,-999,-99.99,,,0.00,,2013-06-09 11:32:00,
2013-06-09 05:42:00,63.0,-99.9,-100.00,North,-999,-999.0,-999.0,-999,-99.99,,,-99.99,,2013-06-09 12:42:00,
2013-06-09 05:53:00,63.0,-99.9,-100.00,North,-999,-999.0,-999.0,-999,-99.99,,,0.00,,2013-06-09 12:53:00,
2013-06-09 06:02:00,63.0,-99.9,-100.00,North,-999,-999.0,-999.0,-999,-99.99,,,0.00,,2013-06-09 13:02:00,
2013-06-09 06:13:00,63.0,-99.9,-100.00,North,-999,-999.0,-999.0,-999,-99.99,,,0.00,,2013-06-09 13:13:00,
2013-06-09 06:23:00,63.0,-99.9,-100.00,North,-999,-999.0,-999.0,-999,-99.99,,,0.00,,2013-06-09 13:23:00,
2013-06-09 06:32:00,63.0,-99.9,-100.00,North,-999,-999.0,-999.0,-999,-99.99,,,0.00,,2013-06-09 13:32:00,
2013-06-09 07:02:00,65.0,-99.9,-100.00,North,-999,-999.0,-999.0,-999,-99.99,,,-99.99,,2013-06-09 14:02:00,
2013-06-09 08:12:00,70.0,-99.9,-100.00,North,-999,-999.0,-999.0,-999,-99.99,,,0.00,,2013-06-09 15:12:00,
2013-06-09 08:44:00,74.0,-99.9,-100.00,North,-999,-999.0,-999.0,-999,-99.99,,,0.00,,2013-06-09 15:44:00,
2013-06-09 08:53:00,74.0,-99.9,-100.00,North,-999,-999.0,-999.0,-999,-99.99,,,0.00,,2013-06-09 15:53:00,
2013-06-09 09:43:00,83.0,-99.9,-100.00,North,-999,-999.0,-999.0,-999,-99.99,,,-99.99,,2013-06-09 16:43:00,
2013-06-09 09:53:00,83.0,-99.9,-100.00,North,-999,-999.0,-999.0,-999,-99.99,,,-99.99,,2013-06-09 16:53:00,
2013-06-09 10:12:00,85.0,-99.9,-100.00,North,-999,-999.0,-999.0,-999,-99.99,,,-99.99,,2013-06-09 17:12:00,
2013-06-09 10:22:00,85.0,-99.9,-100.00,North,-999,-999.0,-999.0,-999,-99.99,,,-99.99,,2013-06-09 17:22:00,
2013-06-09 10:32:00,85.0,-99.9,-100.00,North,-999,-999.0,-999.0,-999,-99.99,,,-99.99,,2013-06-09 17:32:00,
2013-06-09 10:42:00,85.0,-99.9,-100.00,North,-999,-999.0,-999.0,-999,-99.99,,,-99.99,,2013-06-09 17:42:00,
2013-06-09 10:53:00,85.0,-99.9,-100.00,North,-999,-999.0,-999.0,-999,-99.99,,,-99.99,,2013-06-09 17:53:00,
2013-06-09 11:43:00,86.0,-99.9,-100.00,North,-999,-999.0,-999.0,-999,-99.99,,,0.00,,2013-06-09 18:43:00,
2013-06-09 11:52:00,86.0,-99.9,-100.00,North,-999,-999.0,-999.0,-999,-99.99,,,0.00,,2013-06-09 18:52:00,
2013-06-09 12:03:00,86.0,-99.9,-100.00,North,-999,-999.0,-999.0,-999,-99.99,,,0.00,,2013-06-09 19:03:00,
2013-06-09 12:43:00,85.0,-99.9,-100.00,North,-999,-999.0,-999.0,-999,-99.99,,,-99.99,,2013-06-09 19:43:00,
2013-06-09 12:52:00,85.0,-99.9,-100.00,North,-999,-999.0,-999.0,-999,-99.99,,,-99.99,,2013-06-09 19:52:00,
2013-06-09 13:03:00,82.0,-99.9,-100.00,North,-999,-999.0,-999.0,-999,-99.99,,,0.00,,2013-06-09 20:03:00,
2013-06-09 13:53:00,80.0,-99.9,-100.00,North,-999,-999.0,-999.0,-999,-99.99,,,-99.99,,2013-06-09 20:53:00,
2013-06-09 14:03:00,80.0,-99.9,-100.00,North,-999,-999.0,-999.0,-999,-99.99,,,-99.99,,2013-06-09 21:03:00,
2013-06-09 14:12:00,78.0,-99.9,-100.00,North,-999,-999.0,-999.0,-999,-99.99,,,-99.99,,2013-06-09 21:12:00,
2013-06-09 14:22:00,78.0,-99.9,-100.00,North,-999,-999.0,-999.0,-999,-99.99,,,-99.99,,2013-06-09 21:22:00,
2013-06-09 14:44:00,71.0,-99.9,-100.00,North,-999,-999.0,-999.0,-999,-99.99,,,0.00,,2013-06-09 21:44:00,
2013-06-09 14:53:00,71.0,-99.9,-100.00,North,-999,-999.0,-999.0,-999,-99.99,,,8.06,,2013-06-09 21:53:00,
2013-06-09 15:02:00,71.0,-99.9,-100.00,North,-999,-999.0,-999.0,-999,-99.99,,,8.06,,2013-06-09 22:02:00,
2013-06-09 15:13:00,72.0,-99.9,-100.00,North,-999,-999.0,-999.0,-999,-99.99,,,0.00,,2013-06-09 22:13:00,
2013-06-09 15:23:00,72.0,-99.9,-100.00,North,-999,-999.0,-999.0,-999,-99.99,,,0.00,,2013-06-09 22:23:00,
2013-06-09 15:33:00,72.0,-99.9,-100.00,North,-999,-999.0,-999.0,-999,-99.99,,,0.00,,2013-06-09 22:33:00,
2013-06-09 16:12:00,73.0,-99.9,-100.00,North,-999,-999.0,-999.0,-999,-99.99,,,-99.99,,2013-06-09 23:12:00,
2013-06-09 16:22:00,73.0,-99.9,-100.00,North,-999,-999.0,-999.0,-999,-99.99,,,-99.99,,2013-06-09 23:22:00,
2013-06-09 16:43:00,75.0,-99.9,-100.00,North,-999,-999.0,-999.0,-999,-99.99,,,0.00,,2013-06-09 23:43:00,
2013-06-09 17:13:00,76.0,-99.9,-100.00,North,-999,-999.0,-999.0,-999,-99.99,,,0.00,,2013-06-10 00:13:00,
2013-06-09 17:22:00,76.0,-99.9,-100.00,North,-999,-999.0,-999.0,-999,-99.99,,,0.00,,2013-06-10 00:22:00,
2013-06-09 17:42:00,75.0,-99.9,-100.00,North,-999,-999.0,-999.0,-999,-99.99,,,-99.99,,2013-06-10 00:42:00,
2013-06-09 17:52:00,75.0,-99.9,-100.00,North,-999,-999.0,-999.0,-999,-99.99,,,-99.99,,2013-06-10 00:52:00,
2013-06-09 18:12:00,72.0,-99.9,-100.00,North,-999,-999.0,-999.0,-999,-99.99,,,-99.99,,2013-06-10 01:12:00,
2013-06-09 18:22:00,72.0,-99.9,-100.00,North,-999,-999.0,-999.0,-999,-99.99,,,-99.99,,2013-06-10 01:22:00,
2013-06-09 19:02:00,71.0,-99.9,-100.00,North,-999,-999.0,-999.0,-999,-99.99,,,0.00,,2013-06-10 02:02:00,
2013-06-09 19:12:00,70.0,-99.9,-100.00,North,-999,-999.0,-999.0,-999,-99.99,,,0.00,,2013-06-10 02:12:00,
2013-06-09 19:22:00,70.0,-99.9,-100.00,North,-999,-999.0,-999.0,-999,-99.99,,,0.00,,2013-06-10 02:22:00,
2013-06-09 19:32:00,70.0,-99.9,-100.00,North,-999,-999.0,-999.0,-999,-99.99,,,0.00,,2013-06-10 02:32:00,
2013-06-09 19:52:00,70.0,-99.9,-100.00,North,-999,-999.0,-999.0,-999,-99.99,,,-99.99,,2013-06-10 02:52:00,
2013-06-09 20:02:00,70.0,-99.9,-100.00,North,-999,-999.0,-999.0,-999,-99.99,,,-99.99,,2013-06-10 03:02:00,
2013-06-09 20:33:00,50.0,-99.9,-100.00,North,-999,-999.0,-999.0,-999,-99.99,,,0.02,,2013-06-10 03:33:00,
2013-06-09 20:43:00,50.0,-99.9,-100.00,North,-999,-999.0,-999.0,-999,-99.99,,,0.02,,2013-06-10 03:43:00,
2013-06-09 20:53:00,50.0,-99.9,-100.00,North,-999,-999.0,-999.0,-999,-99.99,,,0.02,,2013-06-10 03:53:00,
2013-06-09 21:03:00,68.0,-99.9,-100.00,North,-999,-999.0,-999.0,-999,-99.99,,,-99.99,,2013-06-10 04:03:00,
2013-06-09 21:33:00,65.0,-99.9,-100.00,North,-999,-999.0,-999.0,-999,-99.99,,,0.00,,2013-06-10 04:33:00,
2013-06-09 21:42:00,63.0,-99.9,-100.00,North,-999,-999.0,-999.0,-999,-99.99,,,-99.99,,2013-06-10 04:42:00,
2013-06-09 21:53:00,66.0,-99.9,-100.00,North,-999,-999.0,-999.0,-999,-99.99,,,0.00,,2013-06-10 04:53:00,
2013-06-09 22:03:00,66.0,-99.9,-100.00,North,-999,-999.0,-999.0,-999,-99.99,,,0.00,,2013-06-10 05:03:00,
2013-06-09 22:32:00,65.0,-99.9,-100.00,North,-999,-999.0,-999.0,-999,-99.99,,,0.00,,2013-06-10 05:32:00,
2013-06-09 23:32:00,67.0,-99.9,-100.00,North,-999,-999.0,-999.0,-999,-99.99,,,0.00,,2013-06-10 06:32:00,
2013-06-09 23:42:00,64.0,-99.9,-100.00,North,-999,-999.0,-999.0,-999,-99.99,,,0.00,,2013-06-10 06:42:00,
2013-06-09 23:53:00,64.0,-99.9,-100.00,North,-999,-999.0,-999.0,-999,-99.99,,,0.00,,2013-06-10 06:53:00,